Theta_e
316 316 316 317 317 317 317 317 316 316 314 313 312 312 312 311 312 312 313 318 322 323 323 323 322 324 333 337 346 342 344 347 349 352 351 356 354 353 352 354 354 350 350 351 353
316 316 315 315 316 317 316 317 316 316 315 313 313 312 312 312 312 316 318 319 321 322 323 320 320 320 323 340 345 343 344 342 343 346 355 356 354 354 356 357 356 352 352 353 353
315 314 315 315 315 316 316 316 316 316 315 314 313 312 312 311 319 314 319 321 321 320 321 322 320 323 327 337 347 346 346 342 345 347 348 353 354 354 356 359 355 353 355 353 354
315 314 314 314 315 316 316 315 315 316 315 315 313 312 312 314 315 322 323 324 323 320 319 321 323 326 330 333 343 347 345 345 345 346 345 344 347 353 356 353 352 351 353 353 354
313 314 314 314 314 315 315 315 315 315 315 315 313 312 314 316 312 317 324 327 324 323 321 321 324 328 331 330 331 345 342 341 343 341 341 341 345 347 356 352 348 352 354 353 353
314 313 313 313 313 314 315 315 314 315 315 314 313 312 316 309 315 321 323 325 326 323 321 321 324 326 327 328 332 334 337 336 338 338 340 343 346 347 352 346 350 352 352 352 352
314 314 312 312 313 313 314 314 314 315 315 314 312 317 318 309 319 320 318 322 324 323 321 322 324 326 326 329 331 332 336 335 338 339 341 343 345 355 353 350 354 353 352 350 350
313 313 313 312 312 313 313 313 314 315 315 313 312 318 311 313 314 316 318 320 324 325 325 324 325 324 326 326 328 336 334 337 335 340 341 340 344 355 350 353 354 353 354 354 352
313 313 313 312 312 312 312 313 314 315 313 313 317 316 311 314 315 317 318 320 325 327 330 328 324 323 324 327 331 331 337 337 336 340 342 341 347 355 351 352 355 346 351 353 353
313 312 312 312 311 312 313 314 314 314 316 317 321 318 315 318 319 319 319 319 321 323 325 324 319 322 320 323 335 331 328 329 333 339 342 349 353 354 350 353 346 350 352 353 350
312 312 312 311 310 313 313 315 308 311 319 311 312 315 320 320 320 318 320 320 321 321 325 321 324 325 325 324 326 327 327 328 331 339 341 344 345 345 349 351 347 348 349 352 352
312 311 311 310 310 313 314 310 312 317 320 316 314 316 317 318 319 318 320 320 321 322 323 322 324 323 324 324 324 324 325 328 335 339 338 340 341 348 350 350 348 349 347 348 345
312 312 311 310 312 313 313 316 318 319 320 322 317 316 316 317 317 318 318 319 321 322 323 322 324 323 324 324 325 323 325 329 335 339 337 338 338 345 348 348 347 348 346 345 342
312 312 311 310 312 312 314 317 320 317 321 322 322 319 316 317 320 318 318 318 320 322 321 323 322 324 324 324 323 325 325 329 336 335 336 336 345 338 344 349 348 348 344 345 343
312 311 310 311 311 314 315 321 317 317 329 326 322 319 315 318 317 318 317 319 320 322 321 324 326 326 325 325 324 325 329 333 335 337 334 340 339 338 342 343 344 343 345 341 341
310 309 309 311 312 316 320 321 317 320 331 328 320 318 318 318 318 317 318 318 318 322 322 322 322 324 323 324 324 327 329 326 327 329 337 341 340 342 347 347 346 345 345 342 341
310 310 309 312 313 319 321 314 320 323 324 324 321 317 318 318 320 318 318 319 320 322 323 322 323 323 323 325 324 323 323 326 332 335 336 339 346 338 343 346 347 348 344 343 339
312 315 316 315 318 319 317 319 327 322 326 329 316 316 318 317 318 319 317 318 319 320 319 323 326 323 322 324 324 323 322 326 333 338 341 344 349 347 344 341 347 348 346 344 341
314 316 314 318 317 318 316 323 321 325 330 335 318 318 320 319 318 319 317 316 317 318 321 322 324 323 323 324 325 326 327 324 335 335 342 345 345 345 345 344 352 354 352 349 346
314 316 319 317 316 318 319 321 324 323 327 332 324 319 318 321 320 317 318 317 318 318 318 322 325 323 327 325 325 326 324 329 330 341 347 347 347 348 344 352 353 354 353 352 350
317 321 319 316 317 318 323 323 326 325 328 330 332 324 321 322 318 318 320 319 318 318 318 319 323 324 323 326 326 329 330 323 327 332 342 350 348 344 344 348 353 354 351 349 348
316 324 318 318 321 316 324 325 323 324 326 326 327 329 329 326 323 319 321 322 319 317 320 320 320 322 322 322 328 331 331 326 329 333 339 339 343 345 342 349 351 353 350 347 346
322 319 318 319 321 322 321 324 324 326 327 328 328 327 326 328 327 321 320 323 320 320 320 319 322 322 324 331 331 334 331 327 325 331 342 340 341 347 343 349 349 349 348 345 344
326 326 322 317 315 323 326 328 328 327 328 328 328 330 331 335 334 337 329 334 330 321 336 325 322 321 326 334 331 336 335 329 327 331 333 337 341 351 345 348 348 347 344 340 337
321 329 324 326 325 326 328 330 334 335 329 330 332 334 334 336 336 337 335 331 328 334 322 323 328 326 329 333 333 334 334 332 332 329 336 335 347 347 347 345 347 345 340 335 333
320 323 319 318 321 330 327 331 331 332 330 333 335 335 332 334 334 335 333 332 333 328 327 323 329 328 331 329 333 336 333 333 332 334 337 342 340 340 344 342 344 343 338 334 333
313 315 317 322 325 329 328 329 330 330 332 333 334 334 336 338 337 334 335 332 331 330 328 325 324 326 331 325 325 329 334 335 337 346 342 344 340 341 343 345 343 338 336 334 332
Wind_Speed
14 13 12 11 10 10 9 9 9 8 7 8 7 8 9 12 13 12 7 7 4 9 5 7 2 3 5 3 3 3 3 2 4 4 4 6 7 5 3 5 2 2 5 9 27
15 14 13 12 10 10 9 9 8 8 7 7 6 6 8 12 12 12 25 13 11 8 5 6 5 5 2 3 1 3 2 4 4 5 6 7 7 9 4 4 3 4 7 27 29
17 16 14 12 10 9 9 8 8 7 7 6 5 5 7 8 3 8 8 15 18 13 8 5 6 1 1 3 3 3 4 3 2 4 4 3 3 5 6 4 6 9 18 19 24
18 17 14 12 10 9 8 8 7 6 6 5 4 4 5 2 6 2 5 7 13 16 11 5 2 5 2 2 3 2 7 4 6 4 5 6 7 6 10 5 9 16 21 19 19
20 18 15 13 11 10 9 8 7 5 5 4 3 3 0 1 8 5 7 4 10 12 10 3 2 1 3 5 4 4 5 5 4 6 8 7 4 3 1 5 14 19 19 18 15
20 19 17 14 12 10 9 7 6 5 4 3 2 1 1 3 3 2 6 3 7 12 8 6 4 4 2 4 2 4 6 8 2 6 7 4 3 6 5 8 16 16 12 11 14
20 20 19 16 13 10 8 7 5 4 3 3 3 1 0 12 3 3 7 1 4 6 4 5 3 1 1 4 2 4 5 4 3 2 3 4 5 5 6 10 17 14 11 10 6
21 21 20 17 13 9 7 5 2 2 4 4 3 2 7 4 9 16 10 2 6 7 7 8 6 3 2 4 7 4 5 5 5 9 6 4 3 6 4 9 9 10 9 14 12
22 21 21 17 13 9 3 2 4 5 6 5 3 1 9 7 7 9 10 3 3 5 6 6 1 1 4 3 5 6 2 4 10 8 1 4 1 5 4 1 3 4 6 5 9
23 22 21 18 13 7 3 8 9 8 7 3 0 2 6 2 2 4 7 5 2 1 3 3 5 3 4 5 1 3 4 4 5 5 8 5 3 4 5 5 4 4 4 5 3
22 22 22 19 11 2 10 8 3 1 3 7 6 3 4 10 4 4 6 6 2 7 2 4 4 5 2 3 2 1 3 4 5 4 5 3 5 6 5 4 5 6 4 11 13
23 23 23 22 5 5 8 2 3 2 6 10 2 6 7 2 4 1 10 5 4 3 1 4 5 7 3 4 4 4 5 4 2 6 5 3 4 5 4 3 1 3 5 4 1
24 24 22 18 3 5 6 5 4 10 0 4 5 5 5 9 6 5 6 4 4 4 3 5 6 4 2 2 2 4 4 4 5 4 8 3 5 5 3 2 1 2 4 4 5
25 23 19 11 1 2 5 3 9 5 4 4 4 6 5 6 3 5 7 5 2 8 5 3 5 5 3 5 7 5 6 7 5 4 3 2 2 4 4 2 3 6 4 7 7
26 22 16 5 2 4 4 5 9 4 3 2 3 7 1 8 6 3 5 6 8 5 6 6 3 2 3 4 5 7 4 3 4 5 3 6 5 4 3 4 8 4 6 7 7
28 21 13 3 6 4 2 4 3 5 3 2 4 5 4 0 2 4 4 4 4 5 1 6 4 4 7 3 7 4 5 7 5 3 3 4 3 4 2 5 6 5 3 6 7
33 22 11 9 3 6 3 4 4 3 4 4 4 5 3 3 2 3 6 5 5 4 2 5 6 4 4 3 2 5 6 3 4 4 4 4 1 6 6 7 5 5 3 7 6
23 8 7 15 10 4 6 4 3 3 5 2 4 4 6 4 1 2 6 5 1 5 3 4 6 5 2 7 7 4 7 5 4 3 2 3 2 4 7 7 4 5 2 7 5
10 1 2 6 13 2 4 3 5 4 3 3 4 5 2 2 5 2 7 8 9 8 7 4 5 4 5 5 6 4 3 5 8 3 3 4 5 7 5 5 9 8 6 6 3
2 1 2 2 18 2 4 4 3 4 5 2 3 4 5 5 4 6 7 6 7 11 5 4 2 4 3 4 4 3 7 4 3 4 1 4 5 5 5 6 9 7 5 5 6
1 3 9 8 15 4 3 5 5 5 2 3 2 3 4 6 8 7 7 4 8 7 8 6 3 6 5 2 5 2 2 6 6 4 5 2 6 8 3 8 11 5 5 4 7
1 4 2 2 3 1 2 4 3 5 1 6 3 5 5 7 7 6 12 9 9 9 10 7 5 4 9 5 6 2 6 6 5 5 1 3 6 5 4 7 9 7 5 4 5
3 2 6 5 3 2 5 4 4 4 4 4 3 7 6 5 3 6 5 5 9 10 11 8 1 2 9 5 3 5 3 5 6 4 6 6 6 4 5 6 6 10 6 4 5
2 3 3 3 1 3 2 5 4 3 5 5 4 2 3 4 1 3 4 1 2 6 10 9 5 7 7 7 4 4 4 5 4 4 6 6 4 5 10 8 6 7 6 5 5
4 0 1 2 3 2 1 3 4 4 4 4 2 5 4 0 2 3 2 2 5 3 4 4 5 6 3 3 1 3 3 8 6 3 5 5 13 15 16 12 11 10 7 6 5
3 2 4 0 2 1 3 2 3 6 3 0 3 3 5 4 3 5 4 2 1 6 4 3 2 3 2 5 4 1 3 3 4 3 5 1 6 4 11 7 8 11 8 6 6
6 3 2 2 2 2 2 4 5 6 3 2 2 1 6 4 2 3 3 3 4 5 3 3 3 3 2 3 3 2 3 5 1 2 4 5 4 8 12 11 11 8 6 6 5
Wind_Direction
345 338 331 325 321 315 313 310 307 296 288 286 294 307 309 308 302 287 245 220 223 219 292 328 305 334 167 154 135 115 56 285 176 188 250 148 166 152 200 131 86 44 155 148 145
348 341 333 326 320 317 312 309 303 293 285 284 297 307 312 319 314 268 246 237 230 245 290 3 333 348 54 125 129 99 115 237 188 196 198 191 169 156 166 144 161 78 97 132 143
349 344 336 329 322 316 312 307 302 289 283 280 294 305 314 326 315 249 271 239 235 234 250 314 307 38 344 147 186 166 215 247 268 203 154 208 210 153 132 229 198 169 146 144 149
350 346 342 335 327 319 311 303 298 283 271 269 281 298 314 332 187 55 331 207 210 219 230 287 9 356 332 303 182 263 231 231 282 145 166 177 162 190 183 213 206 152 154 150 160
352 348 343 336 327 317 310 300 294 274 260 255 256 296 318 348 254 346 359 182 177 174 188 189 289 43 348 302 317 205 281 242 281 311 184 156 143 183 290 86 117 139 153 157 166
350 348 344 335 326 315 307 296 286 264 243 223 218 262 112 251 277 325 46 98 171 170 170 185 208 206 283 275 315 246 260 300 268 239 186 125 54 121 46 112 121 130 138 163 168
349 347 343 338 329 315 304 290 269 242 213 178 178 129 32 236 193 257 334 351 195 181 163 227 232 104 243 285 292 281 310 341 346 7 247 146 40 34 91 116 122 137 143 146 167
345 346 345 342 334 318 302 283 203 188 166 163 163 114 248 257 266 267 277 219 212 231 243 268 237 210 183 300 1 12 41 16 295 7 16 65 300 83 94 124 128 147 154 157 170
343 345 344 340 335 324 304 111 131 137 138 130 101 110 268 291 260 256 231 206 163 232 246 249 200 93 23 50 13 6 24 1 328 33 9 45 205 23 88 113 153 33 72 128 156
342 342 343 338 332 324 123 128 115 112 121 109 41 351 273 239 226 188 193 204 194 127 37 64 48 69 40 59 209 336 1 319 264 351 41 60 50 61 54 45 356 18 93 140 140
341 341 341 336 327 124 127 125 72 27 214 189 194 236 315 321 269 179 163 135 97 56 120 1 58 257 178 213 183 295 226 278 257 173 68 44 43 7 3 52 39 333 5 157 213
343 341 339 335 318 179 165 178 135 241 297 216 206 283 279 322 324 197 157 126 104 158 93 25 229 237 190 201 210 232 276 292 315 39 91 20 23 1 19 34 159 206 278 261 205
340 338 336 336 325 186 203 202 191 14 98 288 181 202 221 153 218 233 123 124 118 135 197 159 231 80 124 292 298 247 214 206 201 131 51 98 5 1 12 39 31 194 220 264 217
338 336 331 333 254 173 232 215 291 211 50 263 236 262 147 158 215 194 164 130 68 179 162 243 286 244 276 254 160 293 222 214 147 120 154 10 177 351 336 327 208 228 245 225 222
335 333 329 272 226 205 150 333 130 122 10 138 189 174 250 150 151 233 171 59 157 168 119 239 204 142 269 206 175 240 20 95 79 97 94 12 86 269 331 302 327 358 200 232 229
331 325 316 220 228 185 233 153 135 43 264 126 129 146 145 239 111 121 110 88 149 158 173 232 281 231 217 238 172 176 72 47 60 81 47 325 83 285 289 274 299 298 189 213 222
329 313 258 194 200 174 216 120 48 140 335 185 165 153 151 150 127 137 127 128 154 122 320 326 262 257 198 312 71 96 69 5 10 9 219 283 84 223 217 254 260 274 234 184 210
330 324 223 195 176 85 145 61 171 238 249 312 97 96 160 144 159 111 115 162 220 96 113 141 318 174 168 184 190 176 151 148 194 203 263 313 256 244 204 245 266 64 76 130 174
336 56 184 199 179 124 86 87 211 218 293 358 98 101 135 146 140 128 162 192 196 170 169 160 269 288 214 181 141 188 138 150 105 6 58 306 291 290 238 205 72 47 80 89 121
332 218 337 208 178 104 83 228 248 218 312 9 182 146 159 162 141 157 176 202 201 187 144 211 283 241 322 88 28 174 148 88 25 127 209 301 282 238 253 132 74 61 52 82 91
110 69 357 146 151 51 162 232 274 254 311 358 324 141 144 170 186 184 205 256 193 179 145 141 108 287 23 54 189 128 81 52 111 110 153 163 260 230 196 117 112 105 98 110 106
76 65 113 61 60 5 168 203 265 281 243 254 214 231 183 181 197 214 204 209 166 140 163 190 151 232 245 265 214 281 145 138 123 227 144 153 271 280 146 91 119 130 147 135 126
75 117 167 322 121 311 296 283 236 249 253 212 240 195 192 199 189 196 214 203 154 151 163 179 221 14 335 350 20 95 112 102 105 98 190 142 257 339 98 120 132 146 173 171 140
82 83 338 52 134 143 309 262 263 221 251 214 241 206 149 190 167 158 195 165 135 190 131 111 138 157 183 209 151 153 150 140 104 131 174 214 240 238 194 175 159 152 169 170 154
27 98 211 226 291 237 94 296 295 285 223 168 239 217 141 130 102 132 260 2 69 62 69 120 160 162 218 259 254 129 161 163 187 182 165 222 185 206 195 181 172 166 167 158 175
64 40 358 204 301 266 156 249 300 302 245 230 210 307 150 153 235 170 173 117 142 36 82 19 162 137 77 32 1 68 328 218 205 151 283 76 248 272 153 117 144 168 162 165 181
10 10 92 293 319 117 253 292 267 329 243 218 305 69 106 107 204 91 166 76 118 119 102 88 115 78 209 54 19 44 226 279 337 74 147 202 249 142 144 155 159 144 151 168 158